Location: Clifton Park
(41.4873°N, 81.8024°W)
Time: 21:13:29
(UTC+00:00)

H-2A R/B - Pass Details

Date: 21 January 2020
Orbit: 734 x 836 km, 98.2° (Epoch: 17 February)

Event Time Altitude Azimuth Distance (km) Brightness Sun altitude
Exits shadow 00:57:34 13° 357° (N) 2,091 4.2 -27.8°
Drops below altitude 10° 00:58:07 10° 356° (N) 2,301 4.5 -27.9°
Sets 01:00:29 0° 352° (N) 3,246 5.3 -28.3°
